Owensboro, KY

9:12 AM CDT on March 25, 2017 (GMT -0500)
Owensboro-Daviess County

Weather History for KOWB - January, 2012

Change the Weather History Date:

Thursday, January 5, 2012

  Actual Average Record
Temperature  
Mean Temperature 41 °F -  
Max Temperature 56 °F 40 °F 66 °F (1955)
Min Temperature 26 °F 24 °F -9 °F (1940)
Degree Days  
Heating Degree Days 24    
Moisture  
Dew Point 28 °F    
Average Humidity 66    
Maximum Humidity 92    
Minimum Humidity 36    
Precipitation  
Precipitation 0.00 in - - ()
Sea Level Pressure  
Sea Level Pressure 30.10 in    
Wind  
Wind Speed 4 mph (SSW)    
Max Wind Speed 14 mph    
Max Gust Speed 22 mph    
Visibility 10 miles    
Events      
Averages and records for this station are not official NWS values.
T = Trace of Precipitation, MM = Missing Value Source: NWS Daily Summary

Daily Weather History Graph

Daily Weather History Graph

Search for Another Location

Airport or City:

Trip Planner

Search our weather history database for the weather conditions in past years. The results will help you decide how hot, cold, wet, or windy it might be!

Date:

Astronomy

Jan. 05, 2012 Rise Set
Actual Time 7:04 AM CST 4:43 PM CST
Civil Twilight 6:35 AM CST 5:12 PM CST
Nautical Twilight 6:02 AM CST 5:45 PM CST
Astronomical Twilight 5:30 AM CST 6:17 PM CST
Moon 1:47 PM CST (1/5) 3:49 AM CST (1/5)
Length of Visible Light 10h 37m
Length of Day
9h 39m
Waxing Gibbous, 88% of the Moon is Illuminated
Jan 5
Waxing Gibbous
Jan 9
Full
Jan 16
Last Quarter
Jan 23
New
Jan 30
First Quarter

Hourly Weather History & Observations

Time (CST) Temp. Windchill Dew Point Humidity Pressure Visibility Wind Dir Wind Speed Gust Speed Precip Events Conditions
12:56 AM 31.1 °F - 26.1 °F 82% 30.15 in 10.0 mi Calm Calm - N/A   Clear
1:56 AM 29.1 °F - 25.2 °F 85% 30.16 in 10.0 mi Calm Calm - N/A   Clear
2:56 AM 28.0 °F - 24.1 °F 85% 30.17 in 10.0 mi Calm Calm - N/A   Clear
3:56 AM 27.1 °F - 24.1 °F 88% 30.17 in 10.0 mi Calm Calm - N/A   Clear
4:56 AM 27.1 °F - 24.1 °F 88% 30.19 in 10.0 mi Calm Calm - N/A   Clear
5:56 AM 26.1 °F - 23.0 °F 88% 30.20 in 10.0 mi Calm Calm - N/A   Clear
6:56 AM 26.1 °F - 24.1 °F 92% 30.20 in 10.0 mi Calm Calm - N/A   Clear
7:56 AM 30.0 °F 25.2 °F 27.1 °F 89% 30.21 in 10.0 mi South 4.6 mph - N/A   Clear
8:56 AM 37.4 °F 32.1 °F 30.2 °F 75% 30.19 in 10.0 mi South 6.9 mph - N/A   Clear
9:56 AM 43.0 °F 38.2 °F 32.0 °F 65% 30.20 in 10.0 mi South 8.1 mph - N/A   Clear
10:56 AM 47.8 °F - 32.0 °F 54% 30.16 in 10.0 mi South 12.7 mph - N/A   Clear
11:56 AM 52.0 °F - 31.1 °F 45% 30.11 in 10.0 mi SSW 12.7 mph - N/A   Clear
12:56 PM 53.6 °F - 30.2 °F 41% 30.06 in 10.0 mi SW 12.7 mph 21.9 mph N/A   Clear
1:56 PM 56.8 °F - 30.0 °F 36% 30.04 in 10.0 mi SW 11.5 mph 19.6 mph N/A   Clear
2:56 PM 56.8 °F - 30.0 °F 36% 30.03 in 10.0 mi SW 13.8 mph 19.6 mph N/A   Clear
3:56 PM 54.0 °F - 31.1 °F 42% 30.03 in 10.0 mi SW 10.4 mph - N/A   Clear
4:56 PM 45.9 °F 41.7 °F 31.1 °F 56% 30.03 in 10.0 mi SSW 8.1 mph - N/A   Clear
5:56 PM 45.0 °F 40.6 °F 30.0 °F 56% 30.03 in 10.0 mi South 8.1 mph - N/A   Clear
6:56 PM 41.9 °F 37.5 °F 29.1 °F 61% 30.04 in 10.0 mi South 6.9 mph - N/A   Clear
7:56 PM 43.0 °F 38.8 °F 29.1 °F 58% 30.02 in 10.0 mi SSW 6.9 mph - N/A   Clear
8:56 PM 41.0 °F 35.8 °F 29.1 °F 63% 30.02 in 10.0 mi SSW 8.1 mph - N/A   Clear
9:56 PM 39.9 °F 35.8 °F 28.0 °F 63% 30.02 in 10.0 mi SSW 5.8 mph - N/A   Clear
10:56 PM 39.9 °F 35.8 °F 28.0 °F 63% 30.00 in 10.0 mi South 5.8 mph - N/A   Clear
11:56 PM 38.8 °F 33.8 °F 28.0 °F 65% 29.99 in 10.0 mi South 6.9 mph - N/A   Clear